Flag for Iran Weather past 2 weeks in Esfahãn, Iran

Now
90 °F

Clear.


Feels Like: 86 °F
Forecast: 75 / 99 °F
Wind: 5 mph from Northwest

Location: Esfahan

Current Time: Jul 4, 2015 at 10:42:02 AM

Latest Report: Jul 4, 2015 at 10:00 AM


Visibility: 5 mi

Pressure: 30.04 "Hg (25.18 "Hg at 1576m altitude)

Humidity: 10%

Dew point: 27 °F

Location of EsfahãnLocation

Historic Weather in Esfahãn — Graph

°F

Esfahãn temperature yesterday

Maximum temperature yesterday: 99 °F (at 2:00 PM)
Minimum temperature yesterday: 63 °F (at 6:30 AM)
Average temperature yesterday: 84 °F

Past Weeks' High & Low Weather Summary

 TemperatureHumidityPressure
High104 °F (Jun 30, 3:30 PM)30% (Jun 20, 5:00 AM)30.12 "Hg (Jun 20, 5:00 AM)
Low59 °F (Jun 20, 6:30 AM)3% (Jun 22, 7:30 PM)29.59 "Hg (Jun 26, 4:00 PM)
Average86 °F11%29.86 "Hg
* Reported Jun 19 9:30 AM — Jul 4 9:30 AM, Esfahãn, Weather by CustomWeather, © 2015

Note: Actual official high and low records may vary slightly from our data, if they occured in-between our weather recording intervals... More about our weather records

Advertising

Esfahãn weather history for previous 24 hours

 ConditionsComfort  
Time TempWeatherWind HumidityBarometerVisibility
9:30 AM
Sat, Jul 4
86 °FClear.7 mph11%30.04 "Hg4 mi
9:00 AM82 °FClear.9 mph13%30.04 "Hg5 mi
8:30 AM79 °FHaze.9 mph15%30.04 "Hg2 mi
8:00 AM73 °FHaze.7 mph19%30.04 "Hg1 mi
7:30 AM68 °FHaze.5 mph23%30.04 "Hg1 mi
7:00 AM64 °FHaze.7 mph24%30.04 "Hg1 mi
6:30 AM64 °FHaze.7 mph26%30.04 "Hg1 mi
6:00 AM66 °FHaze.7 mph22%30.01 "Hg2 mi
5:30 AM64 °FHaze.7 mph24%30.01 "Hg2 mi
5:00 AM63 °FClear.9 mph22%30.01 "Hg10 mi
4:30 AM66 °FClear.5 mph21%30.01 "Hg10 mi
4:00 AM68 °FClear.7 mph20%30.01 "Hg10 mi
3:30 AM68 °FClear.7 mph20%30.01 "Hg10 mi
3:00 AM70 °FClear.7 mph17%30.01 "Hg10 mi
2:30 AM73 °FClear.No wind15%30.01 "Hg10 mi
2:00 AM79 °FClear.7 mph13%30.01 "Hg10 mi
1:30 AM77 °FClear.5 mph13%30.01 "Hg10 mi
1:00 AM81 °FClear.5 mph13%30.01 "Hg10 mi
12:30 AM77 °FClear.7 mph12%30.01 "Hg10 mi
12:00 AM81 °FClear.7 mph10%30.01 "Hg10 mi
11:30 PM
Fri, Jul 3
84 °FClear.No wind10%30.01 "Hg10 mi
11:00 PM86 °FClear.9 mph9%30.01 "Hg10 mi
10:30 PM86 °FClear.9 mph9%30.01 "Hg10 mi
10:00 PM86 °FClear.5 mph9%30.01 "Hg10 mi
9:30 PM91 °FSunny.12 mph8%30.01 "Hg10 mi
9:00 PM88 °FSunny.9 mph8%29.98 "Hg10 mi
8:30 PM91 °FSunny.5 mph7%29.98 "Hg10 mi
8:00 PM93 °FSunny.5 mph6%29.98 "Hg10 mi
7:30 PM97 °FSunny.5 mph6%29.98 "Hg10 mi
7:00 PM99 °FSunny.7 mph4%29.95 "Hg10 mi
6:30 PM99 °FSunny.5 mph4%29.95 "Hg10 mi
6:00 PM99 °FSunny.7 mph4%29.95 "Hg10 mi
5:30 PM99 °FSunny.9 mph4%29.95 "Hg10 mi
5:00 PM99 °FSunny.9 mph4%29.98 "Hg10 mi
4:30 PM97 °FSunny.7 mph5%29.98 "Hg10 mi
4:00 PM99 °FSunny.7 mph5%29.98 "Hg10 mi
3:30 PM97 °FSunny.9 mph5%29.98 "Hg10 mi
3:00 PM99 °FSunny.No wind5%30.01 "Hg10 mi
2:30 PM97 °FSunny.7 mph5%30.01 "Hg10 mi
2:00 PM99 °FSunny.5 mph5%30.01 "Hg10 mi
1:30 PM95 °FSunny.5 mph6%30.04 "Hg10 mi
1:00 PM95 °FSunny.9 mph6%30.04 "Hg10 mi
12:30 PM93 °FSunny.12 mph6%30.04 "Hg10 mi
12:00 PM93 °FSunny.9 mph6%30.04 "Hg10 mi
11:30 AM93 °FSunny.5 mph8%30.07 "Hg10 mi
11:00 AM91 °FSunny.12 mph9%30.07 "Hg10 mi
10:30 AM88 °FSunny.9 mph12%30.07 "Hg10 mi
10:00 AM88 °FSunny.9 mph12%30.07 "Hg10 mi
Weather by CustomWeather, © 2015

See weather overviewHow to use our weather pages